Location: Ch�risy
(50.2331°N, 2.9131°E)
Time: 02:18:56
(UTC+00:00)

USA 234 - Pass Details

Date: 17 January 2021
Orbit: 1100 x 1107 km, 123.0° (Epoch: 26 February)

Event Time Altitude Azimuth Distance (km) Brightness Sun altitude
Exits shadow 17:19:01 11° 80° (E) 2,887 4.8 -9.6°
Maximum altitude 17:25:05 51° 8° (N) 1,359 3.6 -10.6°
Drops below altitude 10° 17:31:23 10° 294° (WNW) 2,969 6.3 -11.5°
Sets 17:33:55 0° 290° (WNW) 3,929 7.1 -11.9°
